Back to catalog

HULIANWANG DIGUI-12

AliveCommunicationsLEO
NORAD 62972·PAYLOAD·🇨🇳 China

Launched Feb 11, 2025 from Wenchang Space Launch Site

Loading…

Next Passes (next 24 hours)

TLE

FreshSource: Space-Track

Epoch: Sep 14, 2026, 13:22 UTC

1 62972U 25030B   26257.55704433 -.00000095  00000-0  62103-4 0  9990
2 62972  50.0015 275.4179 0000476  40.7058 319.3850 13.29324745 77749

Track HULIANWANG DIGUI-12 in real time with AllMySat

Download on the App Store